[[{"header":{"parameterUnit":"m.s-1","parameterCategory":1,"la1":30.2991,"la2":30.254,"lo1":-89.0895,"lo2":-89.0444,"dy":0.0017,"dx":0.0017,"nx":28,"ny":28,"refTime":"2023-10-20T21:00:00:Z","depth":0,"parameterNumber":2,"parameterNumberName":"U-component_of_WINDS"},"data":[0,0,0,0,0,0,0,0,0,0,0,0,0,0,0,0,0,0,0,0,0,0,0,0,0,0,0,0,0,0,0,0,0,0,0,0,0,0,0,0,0,0,0,0,0,0,0,0,0,0,0,0,0,0,0,0,0,0,-0.5588,-0.5586,0,-0.5483,-0.5482,-0.5481,-0.5441,-0.5442,-0.5442,-0.5442,-0.5331,-0.5327,-0.5324,0,0,0,0,0,0,0,0,0,0,0,0,0,-0.5748,-0.5745,-0.5588,-0.5586,-0.5585,-0.5484,-0.5482,-0.5481,-0.5441,-0.5442,-0.5442,-0.5442,-0.5332,-0.5328,-0.5324,0,0,0,0,0,0,0,0,0,0,0,0,0,-0.5664,-0.5744,-0.5588,-0.5553,-0.5549,-0.5484,-0.5482,-0.548,-0.5441,-0.5442,-0.5442,-0.5443,-0.5333,-0.5328,-0.5323,-0.5283,0,0,-0.5308,-0.5306,0,0,0,0,0,0,0,0,-0.5669,-0.5658,-0.556,-0.5556,-0.5551,-0.5476,-0.5497,-0.5414,-0.5441,-0.5482,-0.5442,-0.5443,-0.5378,-0.537,-0.5349,-0.5278,-0.5273,-0.5308,-0.5305,-0.5303,-0.5301,0,0,0,0,0,0,0,-0.5675,-0.5662,-0.5546,-0.5558,-0.5553,-0.5541,-0.553,-0.5481,-0.5428,-0.5478,-0.5475,-0.5464,-0.5376,-0.5354,-0.5346,-0.5272,-0.5308,-0.5304,-0.5301,-0.5299,-0.5161,-0.5161,0,0,0,0,0,0,-0.5687,-0.5668,-0.5549,-0.5543,-0.5612,-0.5538,-0.5525,-0.5499,-0.5429,-0.5419,-0.5463,-0.5462,-0.5362,-0.5352,-0.5342,-0.5289,-0.5303,-0.5298,-0.5295,-0.5162,-0.5161,-0.516,0,0,0,0,0,0,-0.5691,-0.5677,-0.5554,-0.5604,-0.5588,-0.5535,-0.5506,-0.5497,-0.5475,-0.5418,-0.5408,-0.5451,-0.5362,-0.5349,-0.5298,-0.5285,-0.5296,-0.5292,-0.5163,-0.5162,-0.5161,-0.5184,0,0,0,0,0,0,-0.5695,-0.5678,-0.5664,-0.5605,-0.5585,-0.5513,-0.5505,-0.5495,-0.5467,-0.5465,-0.5403,-0.5393,-0.5361,-0.5306,-0.5293,-0.5278,-0.5288,-0.5164,-0.5162,-0.5161,-0.5184,-0.5184,-0.5184,0,0,0,0,0,-0.5701,-0.5674,-0.5663,-0.5649,-0.5566,-0.5513,-0.5502,-0.5466,-0.5466,-0.545,-0.5413,-0.5395,-0.5289,-0.5301,-0.5287,-0.527,-0.5164,-0.5163,-0.5161,-0.5185,-0.5184,-0.5184,0,0,0,0,0,0,-0.5731,-0.5665,-0.5653,-0.5606,-0.5566,-0.5506,-0.5485,-0.5467,-0.5425,-0.5424,-0.5381,-0.5367,-0.532,-0.529,-0.5305,-0.5227,-0.5225,-0.5221,-0.5248,-0.5247,-0.5247,-0.5254,-0.5284,0,0,0,0,0,-0.5733,-0.5696,-0.564,-0.5604,-0.5584,-0.5538,-0.5514,-0.549,-0.5446,-0.5428,-0.5387,-0.5344,-0.53,-0.5272,-0.5229,-0.5181,-0.5165,-0.5162,-0.5162,-0.5162,-0.5158,-0.5128,-0.5125,-0.5155,-0.5155,-0.5155,0,0,-0.5735,-0.5694,-0.5674,-0.5609,-0.5575,-0.5536,-0.5524,-0.5484,-0.5454,-0.5421,-0.5371,-0.534,-0.5288,-0.5238,-0.5214,-0.5212,-0.5146,-0.516,-0.516,-0.5156,-0.5126,-0.5124,-0.5121,-0.5154,-0.5154,-0.5154,0,0,-0.5719,-0.5685,-0.5651,-0.5617,-0.5566,-0.5536,-0.5527,-0.5471,-0.5449,-0.5399,-0.5373,-0.5336,-0.5262,-0.5226,-0.5198,-0.5168,-0.5149,-0.5155,-0.5153,-0.5125,-0.5123,-0.5121,-0.5108,-0.5105,-0.5152,-0.5152,-0.5152,0,-0.5727,-0.567,-0.5635,-0.5596,-0.5568,-0.5538,-0.5502,-0.547,-0.5407,-0.5387,-0.5386,-0.5292,-0.5255,-0.5196,-0.5189,-0.5168,-0.5155,-0.5161,-0.5127,-0.5124,-0.5121,-0.5109,-0.5104,-0.5153,-0.5153,-0.5153,-0.5153,0,-0.5682,-0.5642,-0.562,-0.5561,-0.5531,-0.5493,-0.5451,-0.5424,-0.5404,-0.5373,-0.5321,-0.5276,-0.5222,-0.5207,-0.5186,-0.5144,-0.5144,-0.5135,-0.5132,-0.512,-0.5107,-0.5102,-0.5154,-0.5154,-0.5154,-0.5154,0,0,-0.568,-0.5604,-0.5596,-0.5568,-0.551,-0.5478,-0.5438,-0.5388,-0.5364,-0.5322,-0.5287,-0.5225,-0.5217,-0.5185,-0.516,-0.5135,-0.5113,-0.5129,-0.5127,-0.5126,-0.5062,-0.5067,-0.5062,-0.5101,-0.51,-0.5099,-0.5065,0,-0.5655,-0.5585,-0.5553,-0.5497,-0.5459,-0.543,-0.5395,-0.5355,-0.5325,-0.5287,-0.5253,-0.521,-0.5203,-0.5183,-0.5158,-0.5121,-0.5099,-0.5123,-0.5065,-0.5063,-0.5077,-0.5056,-0.5062,-0.5033,-0.506,-0.506,-0.5059,0,-0.5616,-0.5575,-0.5516,-0.5461,-0.5443,-0.5413,-0.5364,-0.5329,-0.5281,-0.5261,-0.5226,-0.5202,-0.5158,-0.516,-0.5097,-0.5114,-0.5089,-0.5067,-0.5065,-0.5056,-0.5059,-0.5046,-0.5023,-0.5018,-0.5051,-0.5052,-0.5053,0,-0.562,-0.5549,-0.5504,-0.5481,-0.5417,-0.5396,-0.5368,-0.5322,-0.5293,-0.5249,-0.523,-0.5181,-0.5154,-0.5116,-0.5079,-0.5084,-0.5019,-0.5018,-0.4999,-0.5,-0.4986,-0.4987,-0.4956,-0.4973,-0.4973,-0.4973,-0.4973,0,-0.5594,-0.5558,-0.5504,-0.5476,-0.5435,-0.5398,-0.5357,-0.5326,-0.5285,-0.5249,-0.5221,-0.5188,-0.5142,-0.5102,-0.5073,-0.5024,-0.5013,-0.4994,-0.4986,-0.4995,-0.4997,-0.4976,-0.4977,-0.4972,-0.4972,-0.4972,-0.4972,0,-0.559,-0.5553,-0.5501,-0.5445,-0.543,-0.5401,-0.5352,-0.5323,-0.5292,-0.5247,-0.5234,-0.5185,-0.5137,-0.5097,-0.5033,-0.5013,-0.4962,-0.4954,-0.4979,-0.4974,-0.4957,-0.4958,-0.4911,-0.4902,-0.4926,-0.4926,-0.4926,0,-0.5575,-0.5547,-0.5488,-0.5462,-0.5435,-0.5395,-0.5365,-0.5327,-0.5298,-0.5242,-0.5219,-0.5169,-0.5127,-0.5051,-0.5009,-0.496,-0.4949,-0.4936,-0.4941,-0.4951,-0.4946,-0.4948,-0.4944,-0.4935,-0.4935,-0.4935,-0.4935,0,-0.5552,-0.5535,-0.5495,-0.5448,-0.5415,-0.5376,-0.5336,-0.5316,-0.527,-0.5238,-0.5189,-0.5157,-0.5092,-0.5043,-0.4989,-0.4958,-0.4938,-0.4934,-0.4926,-0.4934,-0.4949,-0.4939,-0.4976,-0.4934,-0.4934,-0.4934,-0.4934,-0.4934,-0.5541,-0.5514,-0.5468,-0.5424,-0.539,-0.5353,-0.5323,-0.5289,-0.5248,-0.5193,-0.5173,-0.5122,-0.5075,-0.5001,-0.497,-0.4929,-0.4926,-0.4916,-0.4913,-0.491,-0.4911,-0.4957,-0.4919,-0.4919,-0.4919,-0.4919,-0.4919,0,-0.5515,-0.5484,-0.5444,-0.5389,-0.5354,-0.5341,-0.5295,-0.5266,-0.5223,-0.5181,-0.514,-0.5083,-0.5035,-0.4989,-0.4938,-0.4913,-0.4903,-0.4901,-0.4901,-0.4894,-0.4917,-0.4928,-0.4911,-0.4911,-0.4911,-0.4911,-0.4911,-0.4911,-0.5497,-0.5451,-0.5428,-0.5364,-0.5333,-0.5284,-0.5259,-0.5224,-0.5191,-0.5129,-0.5089,-0.506,-0.5016,-0.4961,-0.4915,-0.4903,-0.4884,-0.4885,-0.487,-0.4892,-0.4893,-0.4894,-0.4904,-0.4882,-0.4882,-0.485,-0.485,-0.4849]},{"header":{"parameterUnit":"m.s-1","parameterCategory":1,"la1":30.2991,"la2":30.254,"lo1":-89.0895,"lo2":-89.0444,"dy":0.0017,"dx":0.0017,"nx":28,"ny":28,"refTime":"2023-10-20T21:00:00:Z","depth":0,"parameterNumber":3,"parameterNumberName":"V-component_of_WINDS"},"data":[0,0,0,0,0,0,0,0,0,0,0,0,0,0,0,0,0,0,0,0,0,0,0,0,0,0,0,0,0,0,0,0,0,0,0,0,0,0,0,0,0,0,0,0,0,0,0,0,0,0,0,0,0,0,0,0,0,0,1.7885,1.7887,0,1.8022,1.8024,1.8025,1.8029,1.8027,1.8026,1.8024,1.8161,1.8166,1.8171,0,0,0,0,0,0,0,0,0,0,0,0,0,1.7627,1.7632,1.7885,1.7887,1.7889,1.8022,1.8024,1.8025,1.8029,1.8027,1.8025,1.8023,1.8159,1.8165,1.8171,0,0,0,0,0,0,0,0,0,0,0,0,0,1.7749,1.7633,1.7885,1.7907,1.791,1.8021,1.8024,1.8026,1.803,1.8027,1.8025,1.8023,1.8157,1.8165,1.8172,1.827,0,0,1.8196,1.8199,0,0,0,0,0,0,0,0,1.7742,1.7758,1.7902,1.7905,1.7909,1.8006,1.7983,1.8108,1.803,1.7984,1.8024,1.8021,1.8111,1.8122,1.8154,1.8276,1.8282,1.8197,1.8201,1.8205,1.8207,0,0,0,0,0,0,0,1.7733,1.7752,1.7939,1.7904,1.7908,1.7909,1.7924,1.8006,1.806,1.7988,1.7989,1.8005,1.8113,1.8146,1.8157,1.8284,1.8197,1.8203,1.8208,1.8211,1.8498,1.8501,0,0,0,0,0,0,1.7721,1.7745,1.7935,1.7943,1.7818,1.7916,1.7932,1.7977,1.8059,1.8069,1.8007,1.8005,1.8134,1.8148,1.8162,1.8284,1.8205,1.8212,1.8217,1.8495,1.8499,1.8502,0,0,0,0,0,0,1.7715,1.7738,1.7929,1.7845,1.7869,1.7923,1.7974,1.7981,1.8015,1.8073,1.8083,1.8031,1.8133,1.8151,1.8244,1.8289,1.8216,1.8223,1.8492,1.8496,1.85,1.8528,0,0,0,0,0,0,1.7708,1.7736,1.7773,1.7845,1.7874,1.801,1.7976,1.7986,1.8029,1.8027,1.8099,1.8108,1.8132,1.8233,1.8252,1.8298,1.8229,1.8488,1.8494,1.8499,1.8524,1.8533,1.8541,0,0,0,0,0,1.7699,1.7774,1.7775,1.7798,1.7922,1.8013,1.8029,1.8056,1.8032,1.8071,1.8109,1.8106,1.8281,1.8242,1.8264,1.8313,1.8485,1.8492,1.8498,1.852,1.8531,1.8541,0,0,0,0,0,0,1.7704,1.7784,1.7786,1.7887,1.7943,1.8013,1.8062,1.8066,1.8129,1.8125,1.8154,1.8171,1.8264,1.8298,1.8253,1.8414,1.838,1.8391,1.8389,1.84,1.8409,1.8399,1.8235,0,0,0,0,0,1.7717,1.7785,1.7851,1.7934,1.7962,1.8008,1.8048,1.8064,1.8123,1.8146,1.8191,1.8247,1.8316,1.8359,1.8425,1.8528,1.8545,1.8573,1.8582,1.8589,1.8599,1.8659,1.8673,1.8524,1.8524,1.8524,0,0,1.7745,1.7797,1.7837,1.7936,1.7982,1.8051,1.8027,1.8101,1.8153,1.8157,1.8249,1.8284,1.8349,1.8449,1.8495,1.848,1.8644,1.8597,1.8602,1.8609,1.8667,1.8681,1.8694,1.8528,1.8527,1.8527,0,0,1.7831,1.7876,1.7952,1.7999,1.8069,1.8099,1.8118,1.8188,1.8212,1.8305,1.8311,1.8373,1.8488,1.8536,1.8575,1.8683,1.8683,1.8703,1.8749,1.8807,1.8819,1.883,1.8871,1.8885,1.8712,1.8712,1.8712,0,1.7856,1.7962,1.799,1.8066,1.811,1.8119,1.8197,1.824,1.8327,1.8358,1.8339,1.8488,1.8532,1.8644,1.8671,1.8701,1.8724,1.8695,1.8815,1.8826,1.8837,1.8876,1.8891,1.8714,1.8714,1.8714,1.8714,0,1.7991,1.8064,1.8117,1.8204,1.8254,1.8329,1.837,1.8417,1.843,1.8462,1.8558,1.8612,1.869,1.8718,1.8729,1.8833,1.8822,1.8809,1.8776,1.8852,1.889,1.8905,1.8717,1.8717,1.8716,1.8715,0,0,1.8083,1.8187,1.8206,1.8247,1.8326,1.8383,1.846,1.8539,1.858,1.864,1.8706,1.8806,1.8796,1.884,1.8857,1.8908,1.8994,1.889,1.8892,1.8909,1.9114,1.9125,1.9141,1.8994,1.8997,1.8999,1.9109,0,1.8179,1.8318,1.8347,1.8467,1.8537,1.8548,1.8615,1.8671,1.8704,1.8768,1.8803,1.8875,1.8854,1.8882,1.8933,1.8972,1.9036,1.8965,1.9057,1.906,1.9042,1.9161,1.9171,1.9272,1.9124,1.9126,1.9128,0,1.831,1.8377,1.8504,1.8577,1.8608,1.8668,1.8744,1.8804,1.8869,1.8889,1.8941,1.8953,1.9035,1.8997,1.9111,1.9062,1.9101,1.9127,1.9131,1.9142,1.91,1.9176,1.9305,1.9321,1.9151,1.9149,1.9148,0,1.8368,1.8489,1.8582,1.8616,1.8703,1.8746,1.8784,1.8846,1.8892,1.8958,1.8989,1.9062,1.9103,1.916,1.9193,1.9162,1.9304,1.9269,1.9324,1.9324,1.9355,1.9352,1.9493,1.9377,1.9377,1.9376,1.9376,0,1.8473,1.8551,1.8609,1.8666,1.8755,1.8788,1.8875,1.8912,1.8968,1.9033,1.9046,1.9107,1.9146,1.9212,1.9238,1.9329,1.9346,1.9366,1.9372,1.9366,1.9364,1.9393,1.9388,1.9381,1.938,1.9379,1.9378,0,1.8553,1.8594,1.8697,1.8772,1.8793,1.8855,1.8919,1.8976,1.901,1.9092,1.9113,1.9166,1.9246,1.9284,1.9381,1.9398,1.9503,1.9503,1.9482,1.9485,1.9539,1.9534,1.9705,1.973,1.9595,1.9596,1.9597,0,1.8618,1.8679,1.8762,1.8808,1.8847,1.892,1.8968,1.9004,1.9053,1.9134,1.9181,1.9261,1.9327,1.9453,1.95,1.9575,1.9579,1.9634,1.959,1.9583,1.9583,1.9579,1.9587,1.9642,1.9643,1.9644,1.9645,0,1.8731,1.8749,1.8819,1.8897,1.8955,1.9018,1.9079,1.9116,1.9161,1.9216,1.9299,1.9351,1.9452,1.9532,1.9611,1.965,1.9656,1.9658,1.9676,1.9671,1.9657,1.9667,1.9505,1.9654,1.9653,1.9653,1.9652,1.9652,1.8807,1.8863,1.8931,1.9009,1.906,1.9118,1.9176,1.9218,1.9288,1.9375,1.9391,1.948,1.9545,1.9652,1.9694,1.9764,1.9751,1.9775,1.9782,1.9788,1.9792,1.9645,1.9778,1.9777,1.9777,1.9777,1.9777,0,1.8922,1.8967,1.9039,1.9126,1.9188,1.919,1.9259,1.9311,1.9389,1.945,1.9516,1.9612,1.9691,1.9745,1.9825,1.987,1.9875,1.989,1.9888,1.9897,1.9797,1.9776,1.9885,1.9885,1.9885,1.9885,1.9885,1.9885,1.8989,1.9085,1.9112,1.9234,1.9279,1.9367,1.9407,1.9461,1.951,1.9618,1.9684,1.972,1.9779,1.9864,1.9936,1.995,1.998,1.9995,2.0009,1.9915,1.9904,1.9893,1.9873,2.0001,2.0001,2.0104,2.0105,2.0105]}]]